Simultaneous Nadir Overpasses (SNOs) Predictions

Prediction of SNOs between NOAA-15 and METOP-C Satellite Orbit:

Table of predicted SNOs for the next 14.0 days since TLE Epoch: 6/10/2024
Index Date (NOAA-15) Time (NOAA-15) Lat,Lon (NOAA-15) SZA (NOAA-15 ) Date (METOP-C) Time (METOP-C) Lat,Lon (METOP-C) SZA (METOP-C ) Distance(km) Time Diff (sec)
1 06/23/2024 16:56:51 81.04, -35.87 59.60 06/23/2024 16:55:41 81.03, -36.05 59.55 3.26 70
2 06/23/2024 17:47:24 -81.05, 131.29 120.42 06/23/2024 17:46:22 -81.04, 131.47 120.43 3.34 62
3 06/23/2024 18:37:51 81.05, -61.20 59.60 06/23/2024 18:37:02 81.04, -61.18 59.57 0.76 49
4 06/23/2024 19:28:23 -81.04, 106.33 120.40 06/23/2024 19:27:43 -81.05, 106.34 120.41 1.01 40
5 06/23/2024 20:18:50 81.03, -86.16 59.62 06/23/2024 20:18:23 81.05, -86.31 59.60 3.19 27
6 06/23/2024 21:09:23 -81.04, 81.00 120.40 06/23/2024 21:09:05 -81.04, 80.84 120.43 2.87 18
7 06/23/2024 21:59:51 81.06,-111.85 59.59 06/23/2024 21:59:45 81.04,-111.81 59.58 1.46 6
8 06/23/2024 22:50:23 -81.05, 55.67 120.40 06/23/2024 22:50:26 -81.05, 55.71 120.40 0.66 3
9 06/23/2024 23:40:50 81.04,-136.81 59.61 06/23/2024 23:41:06 81.05,-136.94 59.61 2.61 16
10 06/24/2024 00:31:23 -81.05, 30.34 120.41 06/24/2024 00:31:48 -81.04, 30.20 120.42 2.52 25
11 06/24/2024 01:21:50 81.05,-162.13 59.61 06/24/2024 01:22:27 81.06,-162.07 59.64 1.93 37
12 06/24/2024 02:12:23 -81.06, 5.01 120.41 06/24/2024 02:13:09 -81.05, 5.07 120.39 1.09 46
13 06/24/2024 03:02:50 81.05, 172.54 59.60 06/24/2024 03:03:49 81.05, 172.42 59.62 2.09 59



Historial Predications of SNOs between NOAA-15 and METOP-C
